This is the latest recevied weather packets stored in our database for station/object KCCA. If no packets are shown the sender has not sent any weather packets the latest 1 day(s).
| Time | Temp. | Humidity | Pressure | Rain* | Wind** | Luminosity | Snow |
|---|---|---|---|---|---|---|---|
| 1778056408 | 10° C | 87% | 1011.5 hPa | - | - | - | - |
| 1778053408 | 10° C | 87% | 1011.9 hPa | - | - | - | - |
| 1778052807 | 10° C | 87% | 1011.5 hPa | - | - | - | - |
| 1778051608 | 10° C | 87% | 1010.8 hPa | - | - | - | - |
| 1778050404 | 10° C | 93% | 1010.8 hPa | - | - | - | - |
| 1778049805 | 10° C | 93% | 1010.5 hPa | - | - | - | - |
| 1778048607 | 10° C | 93% | 1010.5 hPa | - | - | - | - |
| 1778046212 | 10° C | 93% | 1010.8 hPa | - | - | - | - |
| 1778045605 | 10.56° C | 87% | 1010.8 hPa | - | - | - | - |
| 1778045007 | 10.56° C | 87% | 1010.8 hPa | - | - | - | - |
| 1778044406 | 10.56° C | 93% | 1010.8 hPa | - | - | - | - |
| 1778042608 | 10.56° C | 93% | 1010.5 hPa | - | - | - | - |
| 1778041408 | 11.67° C | 93% | 1009.8 hPa | - | - | - | - |
| 1778040327 | 11.67° C | 93% | 1009.8 hPa | - | - | - | - |
| 1778039605 | 11.67° C | 93% | 1008.8 hPa | - | - | - | - |
| 1778039012 | 11.67° C | 93% | 1008.8 hPa | - | - | - | - |
| 1778038411 | 12.78° C | 93% | 1008.8 hPa | - | - | - | - |
| 1778037810 | 12.78° C | 93% | 1008.8 hPa | - | - | - | - |
| 1778037206 | 13.89° C | 93% | 1008.8 hPa | - | - | - | - |
| 1778036604 | 13.89° C | 93% | 1008.8 hPa | - | - | - | - |
| 1778035405 | 13.89° C | 93% | 1008.8 hPa | - | - | - | - |
| 1778034207 | 13.89° C | 100% | 1007.8 hPa | - | - | - | - |
| 1778033607 | 15.56° C | 87% | 1008.5 hPa | - | - | - | - |
| 1778032407 | 16.67° C | 88% | 1007.1 hPa | - | - | - | - |
| 1778031207 | 17.78° C | 93% | 1006.8 hPa | - | - | - | - |
* Rain since midnight (hover to see other rain measurements)
** Current wind speed in m/s (hover to see current wind gust speed)